[[{"header":{"parameterUnit":"m.s-1","parameterCategory":1,"la1":30.2991,"la2":30.254,"lo1":-89.0895,"lo2":-89.0444,"dy":0.0017,"dx":0.0017,"nx":28,"ny":28,"refTime":"2025-03-10T03:00:00:Z","depth":0,"parameterNumber":2,"parameterNumberName":"U-component_of_WINDS"},"data":[0,0,0,0,0,0,0,0,0,0,0,0,0,0,0,0,0,0,0,0,0,0,0,0,0,0,0,0,0,0,0,0,0,0,0,0,0,0,0,0,0,0,0,0,0,0,0,0,0,0,0,0,0,0,0,0,0,0,2.5008,2.5009,0,2.5121,2.5122,2.5123,2.512,2.5119,2.5117,2.5116,2.5234,2.5238,2.5243,0,0,0,0,0,0,0,0,0,0,0,0,0,2.4794,2.4798,2.5008,2.5009,2.501,2.512,2.5122,2.5123,2.5121,2.5119,2.5117,2.5115,2.5232,2.5238,2.5243,0,0,0,0,0,0,0,0,0,0,0,0,0,2.4895,2.48,2.5007,2.5022,2.5025,2.512,2.5122,2.5124,2.5121,2.5119,2.5116,2.5114,2.5231,2.5237,2.5244,2.5333,0,0,2.5265,2.5268,0,0,0,0,0,0,0,0,2.4889,2.4903,2.5019,2.5021,2.5024,2.5104,2.509,2.5194,2.5122,2.5085,2.5116,2.5113,2.5193,2.5203,2.5229,2.5338,2.5343,2.5266,2.527,2.5273,2.5275,0,0,0,0,0,0,0,2.4882,2.4898,2.5052,2.502,2.5024,2.5025,2.5037,2.511,2.515,2.5088,2.5088,2.5101,2.5194,2.5222,2.5232,2.5345,2.5265,2.5272,2.5276,2.5278,2.5537,2.554,0,0,0,0,0,0,2.4872,2.4892,2.5049,2.5056,2.495,2.5031,2.5044,2.5081,2.5149,2.5158,2.5103,2.51,2.5212,2.5224,2.5236,2.5347,2.5273,2.5279,2.5283,2.5535,2.5538,2.5541,0,0,0,0,0,0,2.4867,2.4886,2.5044,2.4974,2.4994,2.5037,2.5078,2.5084,2.5113,2.5161,2.5168,2.5124,2.521,2.5226,2.5309,2.5351,2.5282,2.5288,2.5531,2.5536,2.5539,2.5568,0,0,0,0,0,0,2.4861,2.4884,2.4917,2.4975,2.4998,2.5115,2.5081,2.5088,2.5124,2.5122,2.5183,2.5191,2.521,2.5299,2.5316,2.5359,2.5294,2.5528,2.5533,2.5538,2.5563,2.5572,2.558,0,0,0,0,0,2.4853,2.492,2.4918,2.4937,2.504,2.5117,2.513,2.515,2.5127,2.5162,2.5194,2.5189,2.5343,2.5308,2.5327,2.5372,2.5525,2.5532,2.5538,2.556,2.5571,2.558,0,0,0,0,0,0,2.4866,2.4928,2.4927,2.5014,2.506,2.5116,2.516,2.516,2.5214,2.521,2.5233,2.5247,2.5331,2.536,2.5319,2.5464,2.5432,2.5442,2.5442,2.5453,2.5461,2.5453,2.53,0,0,0,0,0,2.4879,2.4935,2.4986,2.5058,2.5082,2.5117,2.5151,2.5163,2.5212,2.5231,2.5269,2.5318,2.5378,2.5417,2.5474,2.5568,2.5583,2.5609,2.5617,2.5624,2.5633,2.5688,2.5701,2.5561,2.5561,2.5561,0,0,2.4906,2.4946,2.498,2.5062,2.5099,2.5159,2.5133,2.5196,2.5242,2.5241,2.5323,2.5352,2.5409,2.5498,2.554,2.5525,2.5675,2.5632,2.5636,2.5642,2.5696,2.5709,2.572,2.5565,2.5565,2.5564,0,0,2.4986,2.5021,2.5086,2.5125,2.5182,2.5205,2.5221,2.5278,2.5298,2.538,2.5382,2.5437,2.5538,2.558,2.5614,2.5713,2.5712,2.5732,2.5776,2.5829,2.584,2.585,2.5888,2.5901,2.574,2.574,2.574,0,2.5012,2.5101,2.512,2.5185,2.5222,2.5225,2.5293,2.5329,2.5402,2.5429,2.5411,2.5541,2.5579,2.568,2.5705,2.5731,2.5752,2.5725,2.5837,2.5847,2.5856,2.5893,2.5907,2.5742,2.5742,2.5742,2.5742,0,2.5132,2.5194,2.524,2.5311,2.5354,2.5419,2.5451,2.5492,2.55,2.5526,2.5612,2.5658,2.5727,2.5751,2.576,2.5855,2.5844,2.5831,2.58,2.5872,2.5907,2.5921,2.5745,2.5745,2.5744,2.5744,0,0,2.5222,2.5305,2.5321,2.5355,2.542,2.5469,2.5536,2.5603,2.5639,2.569,2.5749,2.5837,2.5826,2.5865,2.5879,2.5926,2.6006,2.5908,2.591,2.5926,2.6117,2.6127,2.6143,2.6005,2.6008,2.601,2.6113,0,2.531,2.5429,2.545,2.5554,2.5614,2.5619,2.5678,2.5725,2.5752,2.5808,2.5838,2.5901,2.5881,2.5905,2.5952,2.5986,2.6044,2.5979,2.6062,2.6065,2.6049,2.6161,2.6171,2.6266,2.6126,2.6129,2.613,0,2.5429,2.5484,2.5594,2.5654,2.568,2.5732,2.5797,2.5849,2.5904,2.5921,2.5966,2.5976,2.6049,2.6013,2.6116,2.6071,2.6107,2.6129,2.6133,2.6143,2.6103,2.6175,2.6296,2.6311,2.6151,2.615,2.6148,0,2.5486,2.5588,2.5668,2.5696,2.5767,2.5805,2.5836,2.5889,2.5929,2.5986,2.6013,2.6078,2.6114,2.6165,2.6193,2.6164,2.6295,2.6261,2.6313,2.6312,2.634,2.6339,2.6471,2.6361,2.6361,2.636,2.636,0,2.5584,2.5652,2.5695,2.5744,2.5822,2.5846,2.5923,2.5954,2.6002,2.6059,2.6067,2.6121,2.6154,2.6213,2.6235,2.6319,2.6334,2.6352,2.6357,2.6352,2.635,2.6377,2.6372,2.6364,2.6363,2.6363,2.6362,0,2.566,2.5692,2.578,2.5841,2.5858,2.5913,2.5965,2.6015,2.6043,2.6116,2.6134,2.6178,2.6249,2.6282,2.6369,2.6384,2.648,2.648,2.6461,2.6464,2.6515,2.651,2.667,2.6693,2.6566,2.6567,2.6568,0,2.5721,2.5774,2.5841,2.588,2.5912,2.5974,2.6016,2.6043,2.6086,2.6155,2.6197,2.6268,2.6326,2.644,2.6481,2.6549,2.6552,2.6603,2.6562,2.6556,2.6556,2.6553,2.656,2.6611,2.6612,2.6613,2.6614,0,2.5827,2.584,2.5899,2.5964,2.6014,2.6066,2.6118,2.615,2.6186,2.6235,2.6307,2.6352,2.6443,2.6514,2.6586,2.662,2.6625,2.6626,2.6643,2.6638,2.6626,2.6636,2.6484,2.6623,2.6622,2.6621,2.6621,2.662,2.5899,2.5947,2.6003,2.6069,2.6111,2.616,2.6211,2.6246,2.6306,2.6381,2.6394,2.6472,2.653,2.6626,2.6663,2.6726,2.6715,2.6737,2.6743,2.6749,2.6753,2.6615,2.6739,2.6739,2.6739,2.6739,2.6738,0,2.6007,2.6043,2.6104,2.6177,2.623,2.6228,2.6287,2.6332,2.64,2.6453,2.6511,2.6596,2.6666,2.6714,2.6786,2.6827,2.6831,2.6846,2.6844,2.6852,2.6758,2.6738,2.6841,2.6841,2.6841,2.6841,2.6841,2.6841,2.6069,2.6152,2.6173,2.6278,2.6314,2.639,2.6424,2.6471,2.6513,2.6608,2.6667,2.6697,2.6749,2.6825,2.6891,2.6903,2.693,2.6945,2.6958,2.6869,2.6858,2.6848,2.683,2.695,2.6951,2.7047,2.7048,2.7049]},{"header":{"parameterUnit":"m.s-1","parameterCategory":1,"la1":30.2991,"la2":30.254,"lo1":-89.0895,"lo2":-89.0444,"dy":0.0017,"dx":0.0017,"nx":28,"ny":28,"refTime":"2025-03-10T03:00:00:Z","depth":0,"parameterNumber":3,"parameterNumberName":"V-component_of_WINDS"},"data":[0,0,0,0,0,0,0,0,0,0,0,0,0,0,0,0,0,0,0,0,0,0,0,0,0,0,0,0,0,0,0,0,0,0,0,0,0,0,0,0,0,0,0,0,0,0,0,0,0,0,0,0,0,0,0,0,0,0,-6.5946,-6.5947,0,-6.5976,-6.5976,-6.5976,-6.5937,-6.5935,-6.5934,-6.5933,-6.5959,-6.5961,-6.5963,0,0,0,0,0,0,0,0,0,0,0,0,0,-6.5855,-6.5857,-6.5946,-6.5947,-6.5947,-6.5976,-6.5976,-6.5977,-6.5937,-6.5935,-6.5934,-6.5932,-6.5959,-6.5961,-6.5964,0,0,0,0,0,0,0,0,0,0,0,0,0,-6.5891,-6.5858,-6.5946,-6.5931,-6.593,-6.5976,-6.5976,-6.5977,-6.5937,-6.5935,-6.5933,-6.5931,-6.5958,-6.5961,-6.5964,-6.6025,0,0,-6.5973,-6.5974,0,0,0,0,0,0,0,0,-6.5889,-6.5894,-6.5933,-6.5932,-6.5931,-6.5951,-6.5954,-6.5993,-6.5938,-6.5934,-6.5933,-6.593,-6.5958,-6.5961,-6.5971,-6.6026,-6.6028,-6.5973,-6.5975,-6.5977,-6.5977,0,0,0,0,0,0,0,-6.5886,-6.5893,-6.5958,-6.5933,-6.5932,-6.5922,-6.5925,-6.5961,-6.5958,-6.5934,-6.5932,-6.5936,-6.5957,-6.5968,-6.5971,-6.6028,-6.5973,-6.5976,-6.5978,-6.5979,-6.6139,-6.6142,0,0,0,0,0,0,-6.5886,-6.5891,-6.5957,-6.5959,-6.5904,-6.5926,-6.5929,-6.5946,-6.5957,-6.5957,-6.5938,-6.5934,-6.5964,-6.5968,-6.5972,-6.6047,-6.5977,-6.5979,-6.5981,-6.6137,-6.614,-6.6142,0,0,0,0,0,0,-6.5884,-6.5892,-6.5956,-6.5924,-6.5931,-6.593,-6.595,-6.5948,-6.5959,-6.596,-6.5959,-6.595,-6.5962,-6.5968,-6.6013,-6.6047,-6.5981,-6.5984,-6.6134,-6.6138,-6.6141,-6.6195,0,0,0,0,0,0,-6.5882,-6.5892,-6.5915,-6.5925,-6.5933,-6.5997,-6.5952,-6.595,-6.5965,-6.596,-6.5971,-6.597,-6.5961,-6.6009,-6.6016,-6.605,-6.5986,-6.6131,-6.6136,-6.614,-6.619,-6.62,-6.6209,0,0,0,0,0,-6.5879,-6.5927,-6.5916,-6.5924,-6.5962,-6.5999,-6.6003,-6.5993,-6.5968,-6.5991,-6.5992,-6.597,-6.6043,-6.6014,-6.6022,-6.6057,-6.6129,-6.6134,-6.614,-6.6186,-6.6198,-6.6208,0,0,0,0,0,0,-6.5918,-6.5928,-6.5916,-6.5969,-6.5984,-6.5992,-6.602,-6.6005,-6.6026,-6.6021,-6.6006,-6.6009,-6.6058,-6.6062,-6.603,-6.6119,-6.6081,-6.6089,-6.6114,-6.6125,-6.6134,-6.6132,-6.5989,0,0,0,0,0,-6.5934,-6.5963,-6.597,-6.6016,-6.6025,-6.6022,-6.6037,-6.6029,-6.6042,-6.6048,-6.6052,-6.6065,-6.6092,-6.6109,-6.6133,-6.6191,-6.6194,-6.622,-6.6229,-6.6236,-6.6242,-6.6276,-6.6288,-6.616,-6.616,-6.616,0,0,-6.5964,-6.5974,-6.5992,-6.6025,-6.6035,-6.6066,-6.6027,-6.606,-6.6083,-6.6052,-6.6096,-6.6101,-6.6115,-6.6168,-6.6192,-6.6173,-6.6279,-6.6243,-6.6249,-6.6251,-6.6283,-6.6295,-6.6306,-6.6164,-6.6163,-6.6163,0,0,-6.6037,-6.6047,-6.6088,-6.61,-6.6118,-6.6116,-6.6127,-6.6138,-6.6141,-6.6185,-6.6164,-6.6191,-6.6236,-6.6248,-6.626,-6.6343,-6.6324,-6.6351,-6.6398,-6.6432,-6.6442,-6.6451,-6.6482,-6.6493,-6.6358,-6.6358,-6.6358,0,-6.6073,-6.6119,-6.611,-6.6147,-6.6163,-6.614,-6.6182,-6.6194,-6.6217,-6.6229,-6.6208,-6.6267,-6.6274,-6.6332,-6.6353,-6.6363,-6.6375,-6.6349,-6.6442,-6.645,-6.6458,-6.6488,-6.6499,-6.6361,-6.6361,-6.6361,-6.636,0,-6.6164,-6.6197,-6.6228,-6.6255,-6.6274,-6.6313,-6.6311,-6.6332,-6.6323,-6.6324,-6.6371,-6.6381,-6.6408,-6.6421,-6.6411,-6.6478,-6.6466,-6.6444,-6.6406,-6.6474,-6.6502,-6.6513,-6.6366,-6.6365,-6.6364,-6.6363,0,0,-6.6257,-6.6283,-6.6295,-6.6308,-6.6328,-6.6353,-6.6393,-6.6421,-6.644,-6.6459,-6.6492,-6.6533,-6.6514,-6.6528,-6.652,-6.6549,-6.6617,-6.6523,-6.6524,-6.6541,-6.6693,-6.671,-6.6723,-6.6605,-6.6607,-6.6609,-6.6692,0,-6.6331,-6.6401,-6.6397,-6.6462,-6.6494,-6.6475,-6.651,-6.6526,-6.6529,-6.6557,-6.656,-6.659,-6.6562,-6.657,-6.6599,-6.6603,-6.6647,-6.6597,-6.6636,-6.6637,-6.6633,-6.6737,-6.6754,-6.6831,-6.6703,-6.6705,-6.6706,0,-6.6425,-6.6451,-6.652,-6.654,-6.6553,-6.6584,-6.6612,-6.6638,-6.6657,-6.6658,-6.6677,-6.6665,-6.6706,-6.6668,-6.6725,-6.6691,-6.6707,-6.6712,-6.6715,-6.6717,-6.6675,-6.6743,-6.6856,-6.6868,-6.6722,-6.6721,-6.672,0,-6.6489,-6.654,-6.6589,-6.6601,-6.6624,-6.6647,-6.6658,-6.6675,-6.6694,-6.6718,-6.6731,-6.6759,-6.6774,-6.6797,-6.6793,-6.6766,-6.6852,-6.6813,-6.6853,-6.6854,-6.6871,-6.687,-6.6989,-6.6882,-6.6882,-6.6882,-6.6881,0,-6.6571,-6.6614,-6.6618,-6.6648,-6.6698,-6.6693,-6.6742,-6.675,-6.6766,-6.6798,-6.6783,-6.6813,-6.6807,-6.6837,-6.6835,-6.6883,-6.689,-6.6891,-6.689,-6.6893,-6.6893,-6.6902,-6.6897,-6.6885,-6.6884,-6.6883,-6.6883,0,-6.6648,-6.6653,-6.6706,-6.6725,-6.6732,-6.6767,-6.6783,-6.6813,-6.6817,-6.6857,-6.6867,-6.6872,-6.6908,-6.6908,-6.6946,-6.6945,-6.7005,-6.6997,-6.6999,-6.6997,-6.7038,-6.7034,-6.7167,-6.7184,-6.7066,-6.7067,-6.7068,0,-6.67,-6.6734,-6.6759,-6.6781,-6.6794,-6.6828,-6.6848,-6.6846,-6.6868,-6.6896,-6.6922,-6.6956,-6.6983,-6.704,-6.7048,-6.7079,-6.7072,-6.7116,-6.7076,-6.7079,-6.7073,-6.7071,-6.7075,-6.7124,-6.7125,-6.7126,-6.7127,0,-6.6792,-6.6794,-6.6825,-6.6859,-6.6885,-6.691,-6.6933,-6.6952,-6.6953,-6.6978,-6.7016,-6.7038,-6.708,-6.7115,-6.7145,-6.7155,-6.7142,-6.714,-6.7151,-6.7154,-6.7154,-6.7155,-6.7021,-6.7136,-6.7135,-6.7135,-6.7134,-6.7134,-6.6859,-6.689,-6.6914,-6.695,-6.6968,-6.6992,-6.7021,-6.7031,-6.7063,-6.7099,-6.7096,-6.7138,-6.7159,-6.72,-6.7213,-6.7246,-6.723,-6.7246,-6.725,-6.7254,-6.7259,-6.715,-6.7251,-6.7251,-6.7251,-6.7251,-6.725,0,-6.6951,-6.6967,-6.7001,-6.7036,-6.7066,-6.7054,-6.708,-6.7105,-6.7143,-6.7165,-6.7194,-6.7239,-6.7273,-6.7286,-6.7319,-6.7343,-6.7338,-6.7352,-6.735,-6.7353,-6.727,-6.7258,-6.7356,-6.7356,-6.7356,-6.7356,-6.7356,-6.7356,-6.7002,-6.7055,-6.706,-6.7123,-6.7138,-6.7181,-6.7197,-6.7219,-6.7238,-6.7289,-6.7319,-6.7328,-6.7347,-6.7383,-6.7414,-6.7417,-6.743,-6.7447,-6.7448,-6.7369,-6.7359,-6.7349,-6.7337,-6.745,-6.745,-6.7528,-6.7529,-6.7529]}]]